Regional Weather Roundup
Issued by NWS

Home | Current Version | Previous Version | Graphics & Text | Print | Product List | Glossary On
Versions: 1 2 3 4 5 6 7 8 9 10 11 12 13 14 15 16 17 18 19 20 21 22 23 24 25 26 27 28 29 30 31 32 33 34 35 36 37 38 39 40 41 42 43 44 45 46 47 48 49 50
843
ASUS45 KSLC 261910
RWRUT

UTAH REGIONAL WEATHER ROUNDUP
NATIONAL WEATHER SERVICE SALT LAKE CITY UT
100 PM MDT SUN MAR 26 2017

UTZ001>011-023>025-262000-

NORTHERN UTAH

CITY           SKY/WX    TMP DP  RH WIND       PRES   REMARKS
BRIGHAM CITY     N/A     49  36  61 SW9       30.06S
HILL AFB       MOSUNNY   50  30  46 SW3       30.04F
LOGAN          SUNNY     49  34  56 VRB5      30.03F
OGDEN          PTSUNNY   48  32  53 W7        30.04F
SALT LAKE CITY PTSUNNY   51  29  42 S3        30.03F
WENDOVER       PTSUNNY   48  34  58 E7        30.03F
HEBER CITY     SUNNY     48  25  40 NE3       30.02F

$$

UTZ011>015-024>027-262000-

CENTRAL/NORTHEAST UTAH

CITY           SKY/WX    TMP DP  RH WIND       PRES   REMARKS
PROVO AIRPORT  SUNNY     48  34  58 W8        30.06F
MOAB/CANYONLAN SUNNY     56  30  37 W8        29.97F
DELTA          MOSUNNY   48  36  61 SW7       30.07F
PRICE          SUNNY     50  23  34 SW12      29.99F
ROOSEVELT      SUNNY     52  30  43 SE8       30.03F
VERNAL         MOSUNNY   48  26  42 VRB3      30.02F

$$

UTZ013>016-019>022-027-262000-

SOUTHERN UTAH

CITY           SKY/WX    TMP DP  RH WIND       PRES   REMARKS
BRYCE CANYON   SUNNY     44  25  47 W12       30.06S
CEDAR CITY     SUNNY     49  29  46 VRB3      30.05F
MILFORD        SUNNY     48  35  60 S6        30.06F
ST GEORGE      CLEAR     59  31  34 CALM      30.04F
HANKSVILLE     SUNNY     55  23  28 E5        30.01F
BLANDING       PTSUNNY   53  31  42 SE6       30.07S

$$

REGIONAL REPORTS     COLORADO/ARIZONA

CITY           SKY/WX    TMP DP  RH WIND       PRES   REMARKS
CRAIG, CO      CLOUDY    47  28  47 SW9       30.02F
GRAND JUNCTION MOSUNNY   55  32  41 W8        29.98S
RIFLE, CO      MOSUNNY   55  28  35 W13       29.98S
MONTROSE, CO   PTSUNNY   53  34  48 VRB7      30.00S
CORTEZ, CO     CLOUDY    51  36  56 NW7       30.01S
COLORADO CITY    N/A     57  30  35 W7G16     30.08S
PAGE, AZ       SUNNY     56  35  45 N8        30.01F
GRAND CANYON   SUNNY     52  21  29 VRB6G16   30.07F
KINGMAN, AZ    SUNNY     65  13  13 NE3       30.05S
FLAGSTAFF, AZ  SUNNY     50  21  32 VRB3      30.07F

$$

REGIONAL REPORTS    NEVADA/IDAHO/WYOMING

CITY           SKY/WX    TMP DP  RH WIND       PRES   REMARKS
LAS VEGAS, NV  MOSUNNY   67  32  27 VRB6      30.00F
ELY, NY        PTSUNNY   47  26  44 S8        30.03F
ELKO, NV       CLOUDY    51  27  39 S10       29.97F
POCATELLO, ID  MOSUNNY   50  33  52 NW12      30.00F
BURLEY, ID     CLOUDY    54  25  32 SW15G25   29.96F
FORT BRIDGER,    N/A     43  21  42 W7G17     30.06F
EVANSTON, WY   MOSUNNY   41  23  48 S10       30.03F
ROCK SPRINGS,  MOSUNNY   43  23  45 SW9       30.03F
KEMMERER, WY     N/A     36  21  55 W12       30.03F WCI  27

$$




USA.gov is the U.S. government's official web portal to all federal, state and local government web resources and services.